Location: Goettingen
(51.5300°N, 9.9433°E)
Time: 05:56:03
(UTC+01:00)

ISS - Pass Details

Date: 04 December 2019
Orbit: 411 x 421 km, 51.6° (Epoch: 15 December)

Event Time Altitude Azimuth Distance (km) Brightness Sun altitude
Rises 18:23:45 0° 281° (W) 2,360 1.3 -19.3°
Reaches altitude 10° 18:25:51 10° 279° (W) 1,498 0.1 -19.6°
Maximum altitude 18:29:11 69° 196° (SSW) 452 -3.6 -20.1°
Enters shadow 18:29:22 67° 171° (S) 458 -3.7 -20.1°
